Weather History for Farmington, MO

Change the Weather History Date:

Friday, January 31, 2014

  Actual Average Record
Temperature  
Mean Temperature 32 °F -  
Max Temperature 37 °F 42 °F 62 °F (1997)
Min Temperature 26 °F 24 °F 3 °F (2004)
Degree Days  
Heating Degree Days 34    
Moisture  
Dew Point 21 °F    
Average Humidity 68    
Maximum Humidity 100    
Minimum Humidity 41    
Precipitation  
Precipitation 0.01 in - - ()
Sea Level Pressure  
Sea Level Pressure 30.01 in    
Wind  
Wind Speed 3 mph (East)    
Max Wind Speed 10 mph    
Max Gust Speed -    
Visibility 7 miles    
Events      
Averages and records for this station are not official NWS values.
T = Trace of Precipitation, MM = Missing Value Source: NWS Daily Summary

Daily Weather History Graph

Daily Weather History Graph

Search for Another Location

Airport:

Trip Planner

Search our weather history database for the weather conditions in past years. The results will help you decide how hot, cold, wet, or windy it might be!

Date:

Astronomy

Jan. 31, 2014 Rise Set
Actual Time 7:06 AM CST 5:24 PM CST
Civil Twilight 6:38 AM CST 5:52 PM CST
Nautical Twilight 6:07 AM CST 6:23 PM CST
Astronomical Twilight 5:36 AM CST 6:54 PM CST
Moon 7:18 AM CST (1/31) 6:46 PM CST (1/31)
Length of Visible Light 11h 13m
Length of Day
10h 17m
New Moon, 1% of the Moon is Illuminated
Jan 31
New Moon
Feb 6
First Quarter
Feb 14
Full
Feb 22
Last Quarter
Mar 1
New

Hourly Weather History & Observations

Time (CST) Temp. Windchill Dew Point Humidity Pressure Visibility Wind Dir Wind Speed Gust Speed Precip Events Conditions
12:15 AM 32.0 °F 27.5 °F 12.2 °F 44% 29.97 in 10.0 mi SSE 4.6 mph - N/A   Clear
12:35 AM 32.0 °F 26.4 °F 12.2 °F 44% 29.98 in 10.0 mi South 5.8 mph - N/A   Clear
12:55 AM 32.0 °F 28.7 °F 12.2 °F 44% 29.98 in 10.0 mi South 3.5 mph - N/A   Clear
1:15 AM 32.0 °F 27.5 °F 12.2 °F 44% 29.99 in 10.0 mi SSE 4.6 mph - N/A   Clear
1:35 AM 30.2 °F 23.4 °F 12.2 °F 47% 29.98 in 10.0 mi South 6.9 mph - N/A   Clear
1:55 AM 28.4 °F 21.2 °F 12.2 °F 51% 29.99 in 10.0 mi South 6.9 mph - N/A   Partly Cloudy
2:15 AM 30.2 °F 25.4 °F 14.0 °F 51% 30.01 in 10.0 mi SSW 4.6 mph - N/A   Mostly Cloudy
2:35 AM 30.2 °F 25.4 °F 12.2 °F 47% 30.01 in 10.0 mi South 4.6 mph - N/A   Mostly Cloudy
2:55 AM 30.2 °F 25.4 °F 12.2 °F 47% 30.01 in 10.0 mi South 4.6 mph - N/A   Clear
3:15 AM 30.2 °F - 12.2 °F 47% 30.01 in 10.0 mi Calm Calm - N/A   Clear
3:35 AM 30.2 °F - 12.2 °F 47% 30.01 in 10.0 mi Calm Calm - N/A   Clear
3:55 AM 28.4 °F - 12.2 °F 51% 30.00 in 10.0 mi Calm Calm - N/A   Clear
4:15 AM 30.2 °F - 12.2 °F 47% 29.99 in 10.0 mi Calm Calm - N/A   Clear
4:35 AM 28.4 °F - 12.2 °F 51% 30.00 in 10.0 mi Calm Calm - N/A   Clear
4:55 AM 28.4 °F - 12.2 °F 51% 30.00 in 10.0 mi Calm Calm - N/A   Mostly Cloudy
5:15 AM 28.4 °F - 15.8 °F 59% 29.99 in 10.0 mi Calm Calm - N/A   Overcast
5:35 AM 28.4 °F - 15.8 °F 59% 30.01 in 10.0 mi Calm Calm - N/A   Overcast
5:55 AM 26.6 °F - 15.8 °F 64% 30.03 in 10.0 mi Calm Calm - N/A   Partly Cloudy
6:15 AM 26.6 °F - 15.8 °F 64% 30.03 in 10.0 mi Calm Calm - N/A   Clear
6:35 AM 28.4 °F - 14.0 °F 55% 30.03 in 10.0 mi Calm Calm - N/A   Clear
6:55 AM 26.6 °F - 14.0 °F 59% 30.03 in 10.0 mi Calm Calm - N/A   Clear
7:15 AM 26.6 °F - 14.0 °F 59% 30.04 in 10.0 mi Calm Calm - N/A   Clear
7:35 AM 26.6 °F - 15.8 °F 64% 30.06 in 10.0 mi Calm Calm - N/A   Clear
7:55 AM 28.4 °F - 17.6 °F 64% 30.07 in 10.0 mi Calm Calm - N/A   Clear
8:15 AM 30.2 °F - 15.8 °F 55% 30.06 in 10.0 mi Calm Calm - N/A   Clear
8:35 AM 30.2 °F 24.3 °F 15.8 °F 55% 30.05 in 10.0 mi ENE 5.8 mph - N/A   Clear
8:55 AM 32.0 °F - 15.8 °F 51% 30.07 in 10.0 mi Calm Calm - N/A   Clear
9:15 AM 33.8 °F - 15.8 °F 48% 30.07 in 10.0 mi Calm Calm - N/A   Mostly Cloudy
9:35 AM 35.6 °F 31.7 °F 17.6 °F 48% 30.07 in 10.0 mi ENE 4.6 mph - N/A   Mostly Cloudy
9:55 AM 35.6 °F 32.8 °F 15.8 °F 44% 30.07 in 10.0 mi East 3.5 mph - N/A   Overcast
10:15 AM 35.6 °F 31.7 °F 15.8 °F 44% 30.07 in 10.0 mi East 4.6 mph - N/A   Overcast
10:35 AM 37.4 °F 32.8 °F 15.8 °F 41% 30.08 in 10.0 mi ENE 5.8 mph - N/A   Overcast
10:55 AM 37.4 °F 32.1 °F 15.8 °F 41% 30.07 in 10.0 mi East 6.9 mph - N/A   Overcast
11:15 AM 37.4 °F 31.4 °F 15.8 °F 41% 30.06 in 10.0 mi ENE 8.1 mph - N/A   Overcast
11:35 AM 37.4 °F 32.8 °F 15.8 °F 41% 30.06 in 10.0 mi NE 5.8 mph - N/A   Overcast
11:55 AM 35.6 °F 29.2 °F 15.8 °F 44% 30.06 in 10.0 mi NNE 8.1 mph - N/A   Overcast
12:15 PM 35.6 °F 28.0 °F 17.6 °F 48% 30.04 in 10.0 mi NE 10.4 mph - N/A   Overcast
12:35 PM 35.6 °F 29.2 °F 19.4 °F 52% 30.03 in 10.0 mi ENE 8.1 mph - N/A   Overcast
12:55 PM 35.6 °F 28.6 °F 19.4 °F 52% 30.02 in 10.0 mi ENE 9.2 mph - N/A   Overcast
1:15 PM 35.6 °F 29.9 °F 21.2 °F 56% 30.03 in 10.0 mi ENE 6.9 mph - N/A   Overcast
1:35 PM 35.6 °F 28.6 °F 21.2 °F 56% 30.02 in 10.0 mi East 9.2 mph - N/A   Overcast
1:55 PM 33.8 °F 25.8 °F 21.2 °F 60% 30.01 in 10.0 mi East 10.4 mph - N/A   Overcast
2:15 PM 33.8 °F 27.7 °F 21.2 °F 60% 30.01 in 10.0 mi East 6.9 mph - N/A   Overcast
2:35 PM 33.8 °F 27.0 °F 23.0 °F 65% 30.01 in 9.0 mi East 8.1 mph - N/A   Overcast
2:55 PM 33.8 °F 27.7 °F 24.8 °F 70% 30.01 in 9.0 mi East 6.9 mph - N/A   Overcast
3:15 PM 32.0 °F 26.4 °F 26.6 °F 80% 30.00 in 6.0 mi ENE 5.8 mph - N/A   Overcast
3:35 PM 32.0 °F 26.4 °F 28.4 °F 87% 30.01 in 5.0 mi ENE 5.8 mph - N/A   Overcast
3:55 PM 32.0 °F 25.6 °F 28.4 °F 87% 30.01 in 5.0 mi ENE 6.9 mph - N/A   Overcast
4:15 PM 30.2 °F 23.4 °F 28.4 °F 93% 30.00 in 3.0 mi ENE 6.9 mph - N/A   Overcast
4:35 PM 30.2 °F 25.4 °F 28.4 °F 93% 30.01 in 2.0 mi NE 4.6 mph - N/A   Overcast
4:55 PM 30.2 °F 26.7 °F 28.4 °F 93% 30.01 in 2.0 mi ENE 3.5 mph - N/A   Overcast
5:15 PM 30.2 °F 25.4 °F 28.4 °F 93% 30.00 in 1.8 mi East 4.6 mph - N/A   Overcast
5:35 PM 30.2 °F 26.7 °F 28.4 °F 93% 30.00 in 2.5 mi East 3.5 mph - N/A   Overcast
5:55 PM 30.2 °F 26.7 °F 30.2 °F 100% 30.00 in 2.5 mi East 3.5 mph - N/A   Overcast
6:15 PM 30.2 °F - 30.2 °F 100% 30.00 in 2.0 mi Calm Calm - N/A   Overcast
6:35 PM 30.2 °F - 30.2 °F 100% 30.00 in 2.0 mi Calm Calm - N/A   Overcast
6:55 PM 30.2 °F - 30.2 °F 100% 30.01 in 2.0 mi Calm Calm - N/A   Overcast
7:15 PM 32.0 °F - 30.2 °F 93% 30.01 in 1.8 mi Calm Calm - N/A   Overcast
7:35 PM 32.0 °F 28.7 °F 30.2 °F 93% 30.00 in 1.5 mi ENE 3.5 mph - N/A   Overcast
7:55 PM 32.0 °F - 30.2 °F 93% 30.00 in 1.5 mi Calm Calm - N/A   Overcast
8:15 PM 32.0 °F - 30.2 °F 93% 29.99 in 1.2 mi Calm Calm - N/A   Overcast
8:35 PM 32.0 °F - 30.2 °F 93% 29.98 in 1.5 mi Calm Calm - N/A   Overcast
8:55 PM 32.0 °F - 32.0 °F 100% 29.98 in 1.2 mi Calm Calm - N/A   Overcast
9:15 PM 32.0 °F 28.7 °F 30.2 °F 93% 29.97 in 1.2 mi ESE 3.5 mph - 0.01 in   Overcast
9:35 PM 32.0 °F - 32.0 °F 100% 29.97 in 1.0 mi Calm Calm - 0.01 in   Overcast
9:55 PM 32.0 °F - 32.0 °F 100% 29.97 in 1.0 mi Calm Calm - 0.01 in   Overcast
10:15 PM 32.0 °F - 32.0 °F 100% 29.97 in 1.0 mi Calm Calm - N/A   Overcast
10:35 PM 33.8 °F - 32.0 °F 93% 29.97 in 1.0 mi Calm Calm - N/A   Overcast
10:55 PM 33.8 °F - 32.0 °F 93% 29.96 in 1.0 mi Calm Calm - N/A   Overcast
11:15 PM 32.0 °F - 32.0 °F 100% 29.95 in 0.8 mi Calm Calm - N/A   Overcast
11:35 PM 32.0 °F - 32.0 °F 100% 29.94 in 0.5 mi Calm Calm - N/A   Overcast
11:55 PM 33.8 °F - 32.0 °F 93% 29.95 in 0.5 mi Calm Calm - N/A   Overcast